Location: Pianadetto
(44.4000°N, 10.1000°E)
Time: 21:04:19
(UTC+00:00)

Meteor 1-24 Rocket - Pass Details

Date: 26 May 2022
Orbit: 790 x 927 km, 81.3° (Epoch: 03 July)

Event Time Altitude Azimuth Distance (km) Brightness Sun altitude
Exits shadow 00:35:14 32° 148° (SSE) 1,424 4.5 -22.1°
Maximum altitude 00:37:27 49° 94° (E) 1,075 4.3 -21.9°
Drops below altitude 10° 00:42:43 10° 21° (NNE) 2,424 7.3 -21.6°
Sets 00:45:08 0° 16° (NNE) 3,343 8.3 -21.5°
